| time (UTC) | temp F | wind direction | speed MPH | gust MPH | rain 1hr in | rain 24hr in | rain mn in | humidity % | barometer mb |
| 20260904203835 | 89 | 360 | 5.0 | 13.0 | 0.00 | 0.04 | 0.04 | 64 | 1009.3 |
| 20260904203325 | 89 | 360 | 7.0 | 13.0 | 0.00 | 0.04 | 0.04 | 64 | 1009.2 |
| 20260904202833 | 89 | 360 | 5.0 | 13.0 | 0.00 | 0.04 | 0.04 | 66 | 1009.2 |
| 20260904202341 | 89 | 360 | 5.0 | 13.0 | 0.00 | 0.04 | 0.04 | 64 | 1009.4 |
| 20260904201831 | 88 | 360 | 5.0 | 15.0 | 0.00 | 0.04 | 0.04 | 66 | 1009.5 |
| 20260904201339 | 88 | 360 | 6.0 | 15.0 | 0.00 | 0.04 | 0.04 | 64 | 1009.5 |
| 20260904200826 | 88 | 360 | 6.0 | 15.0 | 0.00 | 0.04 | 0.04 | 66 | 1009.5 |
| 20260904200336 | 88 | 360 | 7.0 | 15.0 | 0.00 | 0.04 | 0.04 | 67 | 1009.6 |
| 20260904195825 | 87 | 360 | 5.0 | 14.0 | 0.00 | 0.04 | 0.04 | 68 | 1009.6 |
| 20260904195400 | 87 | 360 | 5.0 | 14.0 | 0.00 | 0.04 | 0.04 | 68 | 1009.7 |
| 20260904194828 | 87 | 360 | 5.0 | 13.0 | 0.00 | 0.04 | 0.04 | 68 | 1009.8 |
| 20260904194338 | 87 | 360 | 6.0 | 14.0 | 0.00 | 0.04 | 0.04 | 69 | 1009.9 |
| 20260904193826 | 86 | 360 | 8.0 | 14.0 | 0.00 | 0.04 | 0.04 | 67 | 1009.9 |
| 20260904193402 | 86 | 360 | 6.0 | 12.0 | 0.00 | 0.04 | 0.04 | 69 | 1010.0 |
| 20260904192834 | 86 | 360 | 4.0 | 12.0 | 0.00 | 0.04 | 0.04 | 70 | 1010.1 |
| 20260904192339 | 85 | 184 | 6.0 | 12.0 | 0.00 | 0.04 | 0.04 | 68 | 1010.2 |
| 20260904191846 | 85 | 181 | 5.0 | 11.0 | 0.00 | 0.04 | 0.04 | 70 | 1010.2 |
| 20260904191336 | 85 | 360 | 5.0 | 13.0 | 0.00 | 0.04 | 0.04 | 69 | 1010.3 |
| 20260904190824 | 85 | 166 | 7.0 | 14.0 | 0.00 | 0.04 | 0.04 | 69 | 1010.6 |
| 20260904190332 | 84 | 360 | 8.0 | 14.0 | 0.00 | 0.04 | 0.04 | 69 | 1010.7 |
| 20260904185822 | 84 | 360 | 3.0 | 11.0 | 0.00 | 0.04 | 0.04 | 72 | 1010.7 |
| 20260904185358 | 84 | 360 | 4.0 | 12.0 | 0.00 | 0.04 | 0.04 | 73 | 1010.8 |
| 20260904184826 | 83 | 148 | 7.0 | 18.0 | 0.00 | 0.04 | 0.04 | 73 | 1011.0 |
| 20260904184337 | 83 | 360 | 6.0 | 18.0 | 0.00 | 0.04 | 0.04 | 74 | 1011.0 |
| 20260904183846 | 82 | 360 | 9.0 | 14.0 | 0.00 | 0.04 | 0.04 | 75 | 1011.1 |
| 20260904183401 | 81 | 360 | 4.0 | 14.0 | 0.00 | 0.04 | 0.04 | 80 | 1011.0 |
| 20260904182829 | 81 | 360 | 5.0 | 14.0 | 0.00 | 0.04 | 0.04 | 79 | 1011.2 |
| 20260904182338 | 80 | 360 | 9.0 | 14.0 | 0.00 | 0.04 | 0.04 | 79 | 1011.2 |
| 20260904181827 | 79 | 360 | 3.0 | 12.0 | 0.00 | 0.04 | 0.04 | 84 | 1011.3 |
| 20260904181337 | 78 | 360 | 6.0 | 12.0 | 0.00 | 0.04 | 0.04 | 85 | 1011.4 |
| 20260904180825 | 78 | 360 | 7.0 | 16.0 | 0.01 | 0.04 | 0.04 | 85 | 1011.3 |
| 20260904180334 | 77 | 360 | 7.0 | 16.0 | 0.01 | 0.04 | 0.04 | 85 | 1011.5 |
| 20260904175837 | 76 | 360 | 7.0 | 12.0 | 0.01 | 0.04 | 0.04 | 88 | 1011.6 |
| 20260904175326 | 76 | 360 | 8.0 | 12.0 | 0.02 | 0.04 | 0.04 | 90 | 1011.5 |
| 20260904174835 | 75 | 360 | 6.0 | 17.0 | 0.02 | 0.04 | 0.04 | 92 | 1011.3 |
| 20260904174347 | 74 | 360 | 8.0 | 19.0 | 0.03 | 0.04 | 0.04 | 92 | 1011.2 |
| 20260904173855 | 74 | 360 | 7.0 | 19.0 | 0.03 | 0.04 | 0.04 | 94 | 1011.2 |
| 20260904173323 | 73 | 360 | 8.0 | 17.0 | 0.03 | 0.04 | 0.04 | 94 | 1011.1 |
| 20260904172833 | 73 | 360 | 7.0 | 16.0 | 0.03 | 0.04 | 0.04 | 94 | 1011.4 |
| 20260904172340 | 73 | 360 | 8.0 | 15.0 | 0.03 | 0.04 | 0.04 | 93 | 1011.5 |
| 20260904171828 | 73 | 360 | 7.0 | 12.0 | 0.03 | 0.04 | 0.04 | 93 | 1011.8 |
| 20260904171346 | 73 | 360 | 6.0 | 12.0 | 0.03 | 0.04 | 0.04 | 92 | 1012.2 |
| 20260904170852 | 73 | 360 | 7.0 | 12.0 | 0.02 | 0.03 | 0.03 | 91 | 1012.7 |
| 20260904170341 | 74 | 360 | 7.0 | 12.0 | 0.02 | 0.03 | 0.03 | 91 | 1013.3 |
| 20260904165830 | 74 | 360 | 3.0 | 8.0 | 0.02 | 0.03 | 0.03 | 89 | 1013.7 |
| 20260904165338 | 74 | 360 | 0.0 | 5.0 | 0.01 | 0.02 | 0.02 | 88 | 1014.4 |
| 20260904164826 | 75 | 360 | 1.0 | 9.0 | 0.01 | 0.05 | 0.02 | 87 | 1014.0 |
| 20260904164402 | 75 | 360 | 0.0 | 9.0 | 0.00 | 0.04 | 0.01 | 87 | 1014.4 |
| 20260904163830 | 76 | 360 | 2.0 | 8.0 | 0.00 | 0.04 | 0.01 | 87 | 1014.2 |
| 20260904163335 | 76 | 360 | 3.0 | 8.0 | 0.00 | 0.04 | 0.01 | 85 | 1013.9 |
| 20260904162824 | 76 | 360 | 1.0 | 11.0 | 0.00 | 0.04 | 0.01 | 87 | 1013.9 |
| 20260904162334 | 75 | 360 | 4.0 | 11.0 | 0.00 | 0.04 | 0.01 | 88 | 1013.9 |
| 20260904161822 | 75 | 360 | 3.0 | 14.0 | 0.00 | 0.04 | 0.01 | 89 | 1013.9 |
| 20260904161332 | 75 | 360 | 1.0 | 10.0 | 0.00 | 0.04 | 0.01 | 88 | 1013.9 |
| 20260904160838 | 75 | 360 | 5.0 | 10.0 | 0.00 | 0.04 | 0.01 | 88 | 1013.9 |
| 20260904160348 | 75 | 360 | 1.0 | 9.0 | 0.00 | 0.04 | 0.01 | 89 | 1013.7 |
| 20260904155837 | 75 | 360 | 3.0 | 8.0 | 0.01 | 0.04 | 0.01 | 89 | 1013.5 |
| 20260904155346 | 75 | 360 | 2.0 | 14.0 | 0.01 | 0.04 | 0.01 | 89 | 1013.7 |
| 20260904154854 | 74 | 360 | 3.0 | 14.0 | 0.01 | 0.04 | 0.01 | 89 | 1013.9 |
| 20260904154325 | 74 | 360 | 3.0 | 12.0 | 0.01 | 0.04 | 0.01 | 90 | 1013.9 |
| 20260904153900 | 74 | 360 | 5.0 | 12.0 | 0.01 | 0.04 | 0.01 | 90 | 1014.0 |
| 20260904153327 | 74 | 360 | 6.0 | 17.0 | 0.01 | 0.04 | 0.01 | 90 | 1014.1 |
| 20260904152836 | 74 | 360 | 7.0 | 17.0 | 0.01 | 0.04 | 0.01 | 90 | 1014.2 |
| 20260904152347 | 74 | 360 | 9.0 | 18.0 | 0.01 | 0.04 | 0.01 | 90 | 1014.1 |
| 20260904151833 | 74 | 360 | 9.0 | 18.0 | 0.01 | 0.04 | 0.01 | 90 | 1014.0 |
| 20260904151339 | 74 | 360 | 6.0 | 15.0 | 0.01 | 0.04 | 0.01 | 91 | 1014.2 |
| 20260904150846 | 74 | 360 | 6.0 | 16.0 | 0.01 | 0.04 | 0.01 | 90 | 1014.4 |
| 20260904150334 | 75 | 360 | 7.0 | 16.0 | 0.01 | 0.04 | 0.01 | 90 | 1014.2 |
| 20260904145842 | 75 | 360 | 8.0 | 16.0 | 0.00 | 0.03 | 0.00 | 90 | 1014.2 |
| 20260904145352 | 75 | 360 | 7.0 | 16.0 | 0.00 | 0.03 | 0.00 | 89 | 1014.0 |
| 20260904144840 | 76 | 360 | 7.0 | 14.0 | 0.00 | 0.03 | 0.00 | 89 | 1013.9 |
| 20260904144332 | 76 | 360 | 7.0 | 13.0 | 0.00 | 0.03 | 0.00 | 88 | 1013.7 |
| 20260904143838 | 76 | 360 | 8.0 | 13.0 | 0.00 | 0.03 | 0.00 | 88 | 1013.6 |
| 20260904143327 | 76 | 360 | 4.0 | 9.0 | 0.00 | 0.03 | 0.00 | 88 | 1013.1 |
| 20260904142835 | 76 | 360 | 3.0 | 10.0 | 0.00 | 0.03 | 0.00 | 88 | 1012.7 |
| 20260904142325 | 76 | 360 | 3.0 | 11.0 | 0.00 | 0.03 | 0.00 | 88 | 1012.9 |
| 20260904141834 | 76 | 360 | 7.0 | 13.0 | 0.00 | 0.03 | 0.00 | 87 | 1012.8 |
| 20260904141346 | 76 | 360 | 7.0 | 14.0 | 0.00 | 0.03 | 0.00 | 87 | 1012.6 |
| 20260904140854 | 76 | 360 | 9.0 | 14.0 | 0.00 | 0.03 | 0.00 | 88 | 1012.6 |
| 20260904140341 | 75 | 360 | 6.0 | 11.0 | 0.00 | 0.03 | 0.00 | 89 | 1012.7 |
| 20260904135849 | 75 | 360 | 4.0 | 9.0 | 0.00 | 0.03 | 0.00 | 90 | 1012.8 |
| 20260904135334 | 75 | 360 | 5.0 | 10.0 | 0.00 | 0.03 | 0.00 | 91 | 1013.0 |
| 20260904134841 | 74 | 360 | 3.0 | 12.0 | 0.00 | 0.03 | 0.00 | 92 | 1012.9 |
| 20260904134350 | 74 | 360 | 6.0 | 14.0 | 0.00 | 0.03 | 0.00 | 93 | 1012.6 |
| 20260904133858 | 73 | 360 | 3.0 | 14.0 | 0.00 | 0.03 | 0.00 | 93 | 1012.7 |
| 20260904133324 | 73 | 360 | 6.0 | 10.0 | 0.00 | 0.03 | 0.00 | 93 | 1012.6 |
| 20260904132832 | 73 | 360 | 5.0 | 10.0 | 0.00 | 0.03 | 0.00 | 93 | 1012.7 |
| 20260904132342 | 73 | 360 | 6.0 | 12.0 | 0.00 | 0.03 | 0.00 | 93 | 1012.7 |
| 20260904131850 | 73 | 360 | 8.0 | 12.0 | 0.00 | 0.03 | 0.00 | 93 | 1012.8 |
| 20260904131339 | 73 | 360 | 4.0 | 10.0 | 0.00 | 0.03 | 0.00 | 94 | 1012.5 |
| 20260904130846 | 72 | 360 | 6.0 | 9.0 | 0.00 | 0.03 | 0.00 | 94 | 1012.6 |
| 20260904130400 | 72 | 360 | 3.0 | 7.0 | 0.00 | 0.03 | 0.00 | 94 | 1012.5 |
| 20260904125827 | 72 | 360 | 3.0 | 7.0 | 0.00 | 0.03 | 0.00 | 94 | 1012.5 |
| 20260904125336 | 72 | 360 | 3.0 | 8.0 | 0.00 | 0.03 | 0.00 | 94 | 1012.4 |
| 20260904124823 | 72 | 360 | 3.0 | 8.0 | 0.00 | 0.03 | 0.00 | 95 | 1012.3 |
| 20260904124332 | 72 | 360 | 2.0 | 7.0 | 0.00 | 0.03 | 0.00 | 95 | 1012.2 |
| 20260904123834 | 71 | 360 | 2.0 | 6.0 | 0.00 | 0.03 | 0.00 | 95 | 1011.9 |
| 20260904123324 | 71 | 360 | 2.0 | 5.0 | 0.00 | 0.03 | 0.00 | 95 | 1011.9 |
| 20260904122833 | 71 | 360 | 1.0 | 5.0 | 0.00 | 0.03 | 0.00 | 95 | 1011.9 |
| 20260904122323 | 71 | 360 | 2.0 | 4.0 | 0.00 | 0.03 | 0.00 | 95 | 1011.7 |
| 20260904121832 | 71 | 360 | 2.0 | 3.0 | 0.00 | 0.03 | 0.00 | 95 | 1011.6 |
| 20260904121341 | 71 | 360 | 1.0 | 4.0 | 0.00 | 0.03 | 0.00 | 95 | 1011.5 |
| 20260904120828 | 71 | 360 | 0.0 | 6.0 | 0.00 | 0.03 | 0.00 | 95 | 1011.5 |
| 20260904120338 | 71 | 360 | 2.0 | 6.0 | 0.00 | 0.03 | 0.00 | 94 | 1011.4 |
| 20260904115825 | 71 | 360 | 3.0 | 5.0 | 0.00 | 0.03 | 0.00 | 95 | 1011.4 |
| 20260904115333 | 71 | 360 | 1.0 | 6.0 | 0.00 | 0.03 | 0.00 | 95 | 1011.1 |
| 20260904114822 | 71 | 360 | 3.0 | 6.0 | 0.00 | 0.03 | 0.00 | 94 | 1010.9 |
| 20260904114333 | 71 | 360 | 2.0 | 7.0 | 0.00 | 0.03 | 0.00 | 94 | 1010.8 |
| 20260904113840 | 72 | 360 | 3.0 | 7.0 | 0.00 | 0.03 | 0.00 | 94 | 1010.7 |
| 20260904113327 | 72 | 360 | 5.0 | 8.0 | 0.00 | 0.03 | 0.00 | 94 | 1010.7 |
| 20260904112838 | 73 | 360 | 3.0 | 8.0 | 0.00 | 0.03 | 0.00 | 94 | 1010.7 |
| 20260904112325 | 73 | 360 | 2.0 | 6.0 | 0.00 | 0.03 | 0.00 | 95 | 1010.5 |
| 20260904111834 | 73 | 360 | 3.0 | 14.0 | 0.00 | 0.03 | 0.00 | 95 | 1010.5 |
| 20260904111325 | 73 | 360 | 5.0 | 14.0 | 0.00 | 0.03 | 0.00 | 95 | 1010.4 |
| 20260904110832 | 74 | 360 | 7.0 | 12.0 | 0.00 | 0.03 | 0.00 | 95 | 1010.4 |
| 20260904110321 | 74 | 360 | 6.0 | 9.0 | 0.00 | 0.03 | 0.00 | 95 | 1010.1 |
| 20260904105830 | 74 | 360 | 1.0 | 9.0 | 0.00 | 0.03 | 0.00 | 95 | 1010.1 |
| 20260904105338 | 74 | 360 | 5.0 | 9.0 | 0.00 | 0.03 | 0.00 | 95 | 1010.2 |
| 20260904104825 | 74 | 360 | 0.0 | 0.0 | 0.00 | 0.03 | 0.00 | 95 | 1010.0 |
| 20260904104331 | 74 | 360 | 0.0 | 0.0 | 0.00 | 0.03 | 0.00 | 95 | 1009.9 |
| 20260904103905 | 74 | 171 | 0.0 | 0.0 | 0.00 | 0.03 | 0.03 | 95 | 1009.9 |
| 20260904103355 | 74 | 171 | 0.0 | 0.0 | 0.00 | 0.03 | 0.03 | 95 | 1009.7 |
| 20260904102843 | 75 | 360 | 0.0 | 0.0 | 0.00 | 0.03 | 0.03 | 95 | 1009.8 |
| 20260904102331 | 75 | 360 | 0.0 | 0.0 | 0.00 | 0.03 | 0.03 | 95 | 1009.8 |
| 20260904101907 | 75 | 360 | 0.0 | 0.0 | 0.00 | 0.03 | 0.03 | 95 | 1009.8 |
| 20260904101356 | 75 | 360 | 0.0 | 0.0 | 0.00 | 0.03 | 0.03 | 94 | 1009.7 |
| 20260904100822 | 75 | 360 | 0.0 | 0.0 | 0.00 | 0.03 | 0.03 | 94 | 1009.7 |
| 20260904100358 | 75 | 360 | 0.0 | 0.0 | 0.00 | 0.03 | 0.03 | 94 | 1009.9 |
| 20260904095826 | 75 | 172 | 0.0 | 0.0 | 0.00 | 0.03 | 0.03 | 94 | 1009.7 |
| 20260904095335 | 75 | 360 | 0.0 | 0.0 | 0.00 | 0.03 | 0.03 | 94 | 1009.9 |
| 20260904094824 | 75 | 360 | 0.0 | 0.0 | 0.00 | 0.03 | 0.03 | 94 | 1009.8 |
| 20260904094336 | 75 | 360 | 0.0 | 0.0 | 0.00 | 0.03 | 0.03 | 93 | 1009.8 |
| 20260904093824 | 76 | 360 | 0.0 | 0.0 | 0.00 | 0.03 | 0.03 | 93 | 1009.6 |
| 20260904093330 | 76 | 360 | 0.0 | 0.0 | 0.00 | 0.03 | 0.03 | 94 | 1009.5 |
| 20260904092840 | 76 | 360 | 0.0 | 0.0 | 0.00 | 0.03 | 0.03 | 94 | 1009.5 |
| 20260904092330 | 76 | 360 | 0.0 | 0.0 | 0.00 | 0.03 | 0.03 | 94 | 1009.5 |
| 20260904091906 | 76 | 360 | 0.0 | 0.0 | 0.00 | 0.03 | 0.03 | 95 | 1009.6 |
| 20260904091356 | 75 | 360 | 0.0 | 1.0 | 0.00 | 0.03 | 0.03 | 95 | 1009.6 |
| 20260904090823 | 75 | 360 | 0.0 | 1.0 | 0.00 | 0.03 | 0.03 | 95 | 1009.5 |
| 20260904090359 | 75 | 171 | 0.0 | 1.0 | 0.00 | 0.03 | 0.03 | 96 | 1009.6 |
| 20260904085826 | 75 | 360 | 0.0 | 5.0 | 0.00 | 0.03 | 0.03 | 96 | 1009.6 |
| 20260904085336 | 75 | 360 | 0.0 | 5.0 | 0.00 | 0.03 | 0.03 | 96 | 1009.5 |
| 20260904084846 | 75 | 360 | 2.0 | 4.0 | 0.00 | 0.03 | 0.03 | 96 | 1009.4 |
| 20260904084357 | 74 | 360 | 2.0 | 4.0 | 0.00 | 0.03 | 0.03 | 96 | 1009.4 |
| 20260904083842 | 74 | 360 | 1.0 | 4.0 | 0.00 | 0.03 | 0.03 | 96 | 1009.4 |
| 20260904083331 | 74 | 360 | 2.0 | 4.0 | 0.00 | 0.03 | 0.03 | 96 | 1009.5 |
| 20260904082840 | 73 | 169 | 2.0 | 4.0 | 0.00 | 0.03 | 0.03 | 96 | 1009.5 |
| 20260904082330 | 73 | 360 | 3.0 | 4.0 | 0.00 | 0.03 | 0.03 | 96 | 1009.6 |
| 20260904081836 | 73 | 360 | 0.0 | 0.0 | 0.00 | 0.03 | 0.03 | 95 | 1009.7 |
| 20260904081325 | 73 | 360 | 0.0 | 0.0 | 0.00 | 0.03 | 0.03 | 95 | 1009.9 |
| 20260904080833 | 73 | 360 | 0.0 | 0.0 | 0.00 | 0.03 | 0.03 | 95 | 1010.1 |
| 20260904080322 | 73 | 360 | 0.0 | 0.0 | 0.00 | 0.03 | 0.03 | 95 | 1010.4 |
| 20260904075830 | 73 | 360 | 0.0 | 0.0 | 0.00 | 0.03 | 0.03 | 95 | 1010.5 |
| 20260904075336 | 73 | 360 | 0.0 | 0.0 | 0.00 | 0.03 | 0.03 | 95 | 1010.4 |
| 20260904074826 | 73 | 360 | 0.0 | 0.0 | 0.00 | 0.03 | 0.03 | 95 | 1010.4 |
| 20260904074336 | 73 | 360 | 0.0 | 0.0 | 0.00 | 0.03 | 0.03 | 95 | 1010.3 |
| 20260904073823 | 73 | 360 | 0.0 | 0.0 | 0.00 | 0.03 | 0.03 | 95 | 1009.9 |
| 20260904073333 | 74 | 360 | 0.0 | 0.0 | 0.00 | 0.03 | 0.03 | 95 | 1009.9 |
| 20260904072824 | 74 | 360 | 0.0 | 0.0 | 0.00 | 0.03 | 0.03 | 95 | 1010.0 |
| 20260904072331 | 74 | 360 | 0.0 | 0.0 | 0.00 | 0.03 | 0.03 | 95 | 1010.0 |
| 20260904071822 | 74 | 360 | 0.0 | 0.0 | 0.00 | 0.03 | 0.03 | 95 | 1009.9 |
| 20260904071333 | 74 | 161 | 0.0 | 0.0 | 0.00 | 0.03 | 0.03 | 94 | 1009.9 |
| 20260904070822 | 74 | 360 | 0.0 | 0.0 | 0.00 | 0.03 | 0.03 | 95 | 1010.0 |
| 20260904070333 | 74 | 360 | 0.0 | 0.0 | 0.00 | 0.03 | 0.03 | 95 | 1010.0 |
| 20260904065822 | 74 | 360 | 0.0 | 0.0 | 0.00 | 0.03 | 0.03 | 95 | 1009.8 |
| 20260904065331 | 74 | 360 | 0.0 | 0.0 | 0.00 | 0.03 | 0.03 | 95 | 1009.8 |
| 20260904064822 | 74 | 360 | 0.0 | 0.0 | 0.00 | 0.03 | 0.03 | 95 | 1009.9 |
| 20260904064332 | 74 | 360 | 0.0 | 3.0 | 0.00 | 0.03 | 0.03 | 96 | 1009.8 |
| 20260904063840 | 74 | 360 | 0.0 | 4.0 | 0.00 | 0.03 | 0.03 | 96 | 1009.7 |
| 20260904063329 | 74 | 360 | 2.0 | 5.0 | 0.00 | 0.03 | 0.03 | 96 | 1009.8 |
| 20260904062837 | 74 | 360 | 2.0 | 6.0 | 0.00 | 0.03 | 0.03 | 96 | 1009.7 |
| 20260904062327 | 74 | 360 | 2.0 | 6.0 | 0.00 | 0.03 | 0.03 | 96 | 1009.8 |
| 20260904061859 | 74 | 360 | 4.0 | 5.0 | 0.00 | 0.03 | 0.03 | 96 | 1010.0 |
| 20260904061348 | 73 | 360 | 1.0 | 4.0 | 0.00 | 0.03 | 0.03 | 96 | 1010.1 |
| 20260904060836 | 73 | 360 | 1.0 | 5.0 | 0.00 | 0.03 | 0.03 | 96 | 1010.1 |
| 20260904060325 | 73 | 360 | 3.0 | 5.0 | 0.00 | 0.03 | 0.03 | 96 | 1010.2 |
| 20260904055834 | 73 | 360 | 2.0 | 4.0 | 0.00 | 0.03 | 0.03 | 96 | 1010.4 |
| 20260904055343 | 73 | 360 | 2.0 | 5.0 | 0.00 | 0.03 | 0.03 | 96 | 1010.6 |
| 20260904054832 | 73 | 360 | 1.0 | 3.0 | 0.00 | 0.03 | 0.03 | 96 | 1010.6 |
| 20260904054342 | 73 | 360 | 0.0 | 3.0 | 0.00 | 0.03 | 0.03 | 96 | 1010.7 |
| 20260904053847 | 73 | 360 | 0.0 | 3.0 | 0.00 | 0.03 | 0.03 | 96 | 1010.9 |
| 20260904053336 | 73 | 360 | 1.0 | 3.0 | 0.00 | 0.03 | 0.03 | 96 | 1010.9 |
| 20260904052845 | 73 | 360 | 1.0 | 2.0 | 0.00 | 0.03 | 0.03 | 95 | 1010.8 |
| 20260904052333 | 73 | 360 | 0.0 | 2.0 | 0.00 | 0.03 | 0.03 | 95 | 1011.0 |
| 20260904051821 | 73 | 360 | 0.0 | 2.0 | 0.00 | 0.03 | 0.03 | 96 | 1011.2 |
| 20260904051332 | 73 | 360 | 1.0 | 2.0 | 0.00 | 0.03 | 0.03 | 96 | 1011.2 |
| 20260904050836 | 73 | 360 | 1.0 | 2.0 | 0.00 | 0.03 | 0.03 | 95 | 1011.1 |
| 20260904050324 | 73 | 360 | 0.0 | 2.0 | 0.00 | 0.03 | 0.03 | 95 | 1011.0 |
| 20260904045834 | 73 | 360 | 0.0 | 0.0 | 0.00 | 0.03 | 0.03 | 95 | 1011.0 |
| 20260904045324 | 73 | 360 | 0.0 | 0.0 | 0.00 | 0.03 | 0.03 | 95 | 1011.0 |
| 20260904044834 | 73 | 360 | 0.0 | 0.0 | 0.00 | 0.03 | 0.03 | 95 | 1010.9 |
| 20260904044324 | 73 | 360 | 0.0 | 0.0 | 0.00 | 0.03 | 0.03 | 95 | 1010.9 |
| 20260904043832 | 73 | 360 | 0.0 | 1.0 | 0.00 | 0.03 | 0.03 | 95 | 1011.0 |
| 20260904043322 | 73 | 360 | 0.0 | 1.0 | 0.00 | 0.03 | 0.03 | 95 | 1011.0 |
| 20260904042832 | 73 | 360 | 0.0 | 1.0 | 0.00 | 0.03 | 0.03 | 94 | 1011.0 |
| 20260904042409 | 73 | 360 | 0.0 | 1.0 | 0.00 | 0.03 | 0.03 | 94 | 1011.0 |
| 20260904041857 | 73 | 360 | 0.0 | 1.0 | 0.00 | 0.03 | 0.03 | 94 | 1011.1 |
| 20260904041346 | 73 | 360 | 0.0 | 1.0 | 0.00 | 0.03 | 0.03 | 94 | 1011.1 |
| 20260904040854 | 73 | 360 | 0.0 | 2.0 | 0.00 | 0.03 | 0.03 | 94 | 1011.2 |
| 20260904040343 | 74 | 360 | 1.0 | 4.0 | 0.00 | 0.03 | 0.03 | 94 | 1011.3 |
| 20260904035830 | 73 | 360 | 1.0 | 4.0 | 0.00 | 0.03 | 0.03 | 94 | 1011.3 |
| 20260904035340 | 74 | 360 | 1.0 | 2.0 | 0.00 | 0.03 | 0.03 | 94 | 1011.3 |
| 20260904034829 | 74 | 360 | 0.0 | 1.0 | 0.00 | 0.03 | 0.03 | 94 | 1011.3 |
| 20260904034335 | 74 | 360 | 0.0 | 2.0 | 0.00 | 0.03 | 0.03 | 94 | 1011.3 |
| 20260904033822 | 74 | 360 | 1.0 | 4.0 | 0.00 | 0.03 | 0.03 | 94 | 1011.4 |
| 20260904033331 | 74 | 360 | 1.0 | 4.0 | 0.00 | 0.03 | 0.03 | 94 | 1011.4 |
| 20260904032821 | 74 | 360 | 2.0 | 4.0 | 0.00 | 0.03 | 0.03 | 94 | 1011.6 |
| 20260904032330 | 74 | 360 | 2.0 | 4.0 | 0.00 | 0.03 | 0.03 | 94 | 1011.7 |
| 20260904031840 | 74 | 360 | 0.0 | 5.0 | 0.00 | 0.03 | 0.03 | 94 | 1011.6 |
| 20260904031349 | 74 | 360 | 2.0 | 5.0 | 0.00 | 0.03 | 0.03 | 94 | 1011.6 |
| 20260904030903 | 74 | 360 | 2.0 | 4.0 | 0.00 | 0.03 | 0.03 | 94 | 1011.6 |
| 20260904030350 | 74 | 360 | 1.0 | 5.0 | 0.00 | 0.03 | 0.03 | 94 | 1011.5 |
| 20260904025838 | 74 | 360 | 2.0 | 5.0 | 0.00 | 0.03 | 0.03 | 94 | 1011.7 |
| 20260904025327 | 74 | 360 | 0.0 | 2.0 | 0.00 | 0.03 | 0.03 | 94 | 1011.5 |
| 20260904024836 | 74 | 360 | 0.0 | 3.0 | 0.00 | 0.03 | 0.03 | 94 | 1011.5 |
| 20260904024347 | 74 | 360 | 1.0 | 3.0 | 0.00 | 0.03 | 0.03 | 93 | 1011.6 |
| 20260904023834 | 74 | 360 | 0.0 | 1.0 | 0.00 | 0.03 | 0.03 | 93 | 1011.5 |
| 20260904023324 | 74 | 360 | 0.0 | 3.0 | 0.00 | 0.03 | 0.03 | 93 | 1011.3 |
| 20260904022856 | 74 | 360 | 1.0 | 3.0 | 0.00 | 0.03 | 0.03 | 93 | 1011.5 |
| 20260904022325 | 74 | 360 | 0.0 | 1.0 | 0.00 | 0.03 | 0.03 | 92 | 1011.4 |
| 20260904021835 | 74 | 360 | 0.0 | 2.0 | 0.00 | 0.03 | 0.03 | 92 | 1011.2 |
| 20260904021326 | 74 | 360 | 0.0 | 3.0 | 0.00 | 0.03 | 0.03 | 92 | 1011.1 |
| 20260904020834 | 74 | 360 | 1.0 | 3.0 | 0.00 | 0.03 | 0.03 | 92 | 1011.1 |
| 20260904020325 | 74 | 360 | 0.0 | 0.0 | 0.00 | 0.03 | 0.03 | 92 | 1011.1 |
| 20260904015900 | 74 | 360 | 0.0 | 3.0 | 0.00 | 0.03 | 0.03 | 92 | 1011.0 |
| 20260904015347 | 74 | 360 | 1.0 | 3.0 | 0.00 | 0.03 | 0.03 | 92 | 1011.0 |
| 20260904014837 | 74 | 360 | 1.0 | 3.0 | 0.00 | 0.03 | 0.03 | 91 | 1011.0 |
| 20260904014329 | 74 | 360 | 0.0 | 2.0 | 0.00 | 0.03 | 0.03 | 91 | 1011.0 |
| 20260904013835 | 75 | 360 | 0.0 | 1.0 | 0.00 | 0.03 | 0.03 | 91 | 1010.9 |
| 20260904013323 | 75 | 360 | 0.0 | 1.0 | 0.00 | 0.03 | 0.03 | 90 | 1010.9 |
| 20260904012833 | 75 | 360 | 0.0 | 1.0 | 0.00 | 0.03 | 0.03 | 90 | 1010.7 |
| 20260904012321 | 75 | 360 | 0.0 | 5.0 | 0.00 | 0.03 | 0.03 | 90 | 1010.7 |
| 20260904011830 | 75 | 360 | 0.0 | 5.0 | 0.00 | 0.03 | 0.03 | 90 | 1010.6 |
| 20260904011341 | 75 | 360 | 0.0 | 3.0 | 0.00 | 0.03 | 0.03 | 90 | 1010.6 |
| 20260904010828 | 75 | 360 | 0.0 | 4.0 | 0.00 | 0.03 | 0.03 | 89 | 1010.6 |
| 20260904010337 | 75 | 360 | 3.0 | 5.0 | 0.00 | 0.03 | 0.03 | 89 | 1010.6 |
| 20260904005827 | 75 | 360 | 2.0 | 5.0 | 0.00 | 0.03 | 0.03 | 88 | 1010.5 |
| 20260904005335 | 76 | 360 | 1.0 | 5.0 | 0.00 | 0.03 | 0.03 | 88 | 1010.5 |
| 20260904004841 | 76 | 360 | 3.0 | 5.0 | 0.00 | 0.03 | 0.03 | 88 | 1010.4 |
| 20260904004353 | 76 | 360 | 0.0 | 3.0 | 0.00 | 0.03 | 0.03 | 88 | 1010.2 |
| 20260904003839 | 76 | 360 | 0.0 | 5.0 | 0.00 | 0.03 | 0.03 | 87 | 1010.1 |
| 20260904003328 | 76 | 360 | 1.0 | 5.0 | 0.00 | 0.03 | 0.03 | 87 | 1010.2 |
| 20260904002837 | 77 | 360 | 1.0 | 3.0 | 0.00 | 0.03 | 0.03 | 86 | 1010.0 |
| 20260904002328 | 77 | 360 | 0.0 | 3.0 | 0.00 | 0.03 | 0.03 | 86 | 1009.9 |
| 20260904001838 | 77 | 360 | 1.0 | 5.0 | 0.00 | 0.03 | 0.03 | 85 | 1009.8 |
| 20260904001328 | 77 | 360 | 1.0 | 5.0 | 0.00 | 0.03 | 0.03 | 84 | 1009.8 |
| 20260904000836 | 78 | 360 | 0.0 | 3.0 | 0.00 | 0.03 | 0.03 | 84 | 1009.8 |
| 20260904000325 | 78 | 360 | 1.0 | 3.0 | 0.00 | 0.03 | 0.03 | 83 | 1009.7 |
| 20260903235834 | 78 | 360 | 0.0 | 4.0 | 0.00 | 0.03 | 0.03 | 82 | 1009.7 |
| 20260903235323 | 79 | 360 | 0.0 | 4.0 | 0.00 | 0.03 | 0.03 | 81 | 1009.7 |
| 20260903234833 | 79 | 360 | 1.0 | 4.0 | 0.00 | 0.03 | 0.03 | 80 | 1009.7 |
| 20260903234323 | 79 | 360 | 1.0 | 3.0 | 0.00 | 0.03 | 0.03 | 78 | 1009.7 |
| 20260903233830 | 80 | 360 | 1.0 | 3.0 | 0.00 | 0.03 | 0.03 | 77 | 1009.9 |
| 20260903233338 | 80 | 360 | 0.0 | 3.0 | 0.00 | 0.03 | 0.03 | 76 | 1009.9 |
| 20260903232828 | 80 | 360 | 0.0 | 4.0 | 0.00 | 0.03 | 0.03 | 75 | 1009.9 |
| 20260903232340 | 81 | 360 | 0.0 | 8.0 | 0.00 | 0.03 | 0.03 | 73 | 1010.1 |
| 20260903231849 | 81 | 360 | 4.0 | 8.0 | 0.00 | 0.03 | 0.03 | 71 | 1010.2 |
| 20260903231334 | 82 | 360 | 5.0 | 7.0 | 0.00 | 0.03 | 0.03 | 69 | 1010.2 |
| 20260903230822 | 83 | 360 | 2.0 | 8.0 | 0.00 | 0.03 | 0.03 | 68 | 1010.1 |
| 20260903230331 | 84 | 360 | 3.0 | 9.0 | 0.00 | 0.03 | 0.03 | 67 | 1010.1 |
| 20260903225839 | 85 | 360 | 4.0 | 9.0 | 0.00 | 0.03 | 0.03 | 69 | 1010.1 |
| 20260903225329 | 86 | 360 | 3.0 | 7.0 | 0.00 | 0.03 | 0.03 | 71 | 1010.1 |
| 20260903224839 | 86 | 360 | 1.0 | 5.0 | 0.00 | 0.03 | 0.03 | 71 | 1010.0 |
| 20260903224330 | 86 | 360 | 1.0 | 5.0 | 0.00 | 0.03 | 0.03 | 72 | 1010.0 |
| 20260903223837 | 86 | 360 | 3.0 | 6.0 | 0.00 | 0.03 | 0.03 | 71 | 1010.0 |
| 20260903223346 | 86 | 360 | 4.0 | 6.0 | 0.00 | 0.03 | 0.03 | 70 | 1009.9 |
| 20260903222834 | 86 | 360 | 3.0 | 7.0 | 0.00 | 0.03 | 0.03 | 70 | 1009.9 |
| 20260903222324 | 86 | 360 | 2.0 | 10.0 | 0.00 | 0.03 | 0.03 | 72 | 1010.0 |
| 20260903221834 | 86 | 360 | 2.0 | 10.0 | 0.00 | 0.03 | 0.03 | 70 | 1009.9 |
| 20260903221324 | 86 | 360 | 3.0 | 7.0 | 0.00 | 0.03 | 0.03 | 72 | 1010.1 |
| 20260903220833 | 86 | 360 | 3.0 | 8.0 | 0.00 | 0.03 | 0.03 | 72 | 1010.1 |
| 20260903220340 | 86 | 360 | 3.0 | 8.0 | 0.00 | 0.03 | 0.03 | 71 | 1010.1 |
| 20260903215829 | 86 | 360 | 5.0 | 8.0 | 0.00 | 0.03 | 0.03 | 71 | 1010.1 |
| 20260903215339 | 86 | 360 | 3.0 | 8.0 | 0.00 | 0.03 | 0.03 | 72 | 1010.2 |
| 20260903214828 | 86 | 360 | 5.0 | 8.0 | 0.00 | 0.03 | 0.03 | 72 | 1010.2 |
| 20260903214338 | 86 | 360 | 4.0 | 8.0 | 0.00 | 0.03 | 0.03 | 71 | 1010.2 |
| 20260903213826 | 86 | 360 | 6.0 | 8.0 | 0.00 | 0.03 | 0.03 | 71 | 1010.1 |
| 20260903213334 | 86 | 360 | 2.0 | 7.0 | 0.00 | 0.03 | 0.03 | 72 | 1010.2 |
| 20260903212838 | 85 | 360 | 3.0 | 7.0 | 0.00 | 0.03 | 0.03 | 72 | 1010.2 |
| 20260903212348 | 85 | 360 | 3.0 | 8.0 | 0.00 | 0.03 | 0.03 | 73 | 1010.2 |
| 20260903211835 | 85 | 360 | 2.0 | 8.0 | 0.00 | 0.03 | 0.03 | 72 | 1010.2 |
| 20260903211327 | 85 | 360 | 4.0 | 6.0 | 0.00 | 0.03 | 0.03 | 73 | 1010.2 |
| 20260903210834 | 85 | 360 | 4.0 | 6.0 | 0.00 | 0.03 | 0.03 | 73 | 1010.3 |
| 20260903210322 | 85 | 360 | 3.0 | 7.0 | 0.00 | 0.03 | 0.03 | 74 | 1010.4 |
| 20260903205859 | 84 | 360 | 4.0 | 7.0 | 0.00 | 0.03 | 0.03 | 73 | 1010.4 |
| 20260903205347 | 85 | 360 | 2.0 | 5.0 | 0.00 | 0.03 | 0.03 | 74 | 1010.5 |
| 20260903204857 | 85 | 360 | 0.0 | 5.0 | 0.00 | 0.03 | 0.03 | 73 | 1010.7 |
| 20260903204347 | 85 | 360 | 1.0 | 4.0 | 0.00 | 0.03 | 0.03 | 73 | 1010.7 |